Location: Hertford
(51.8000°N, 0.0667°W)
Time: 00:45:48
(UTC+00:00)

SJ-6B - Pass Details

Date: 18 September 2020
Orbit: 511 x 580 km, 97.6° (Epoch: 30 October)

Event Time Altitude Azimuth Distance (km) Brightness Sun altitude
Exits shadow 19:22:17 11° 152° (SSE) 1,673 4.9 -12.2°
Maximum altitude 19:25:49 60° 73° (ENE) 594 2.7 -12.8°
Drops below altitude 10° 19:29:33 10° 353° (N) 1,760 5.8 -13.3°
Sets 19:31:41 0° 349° (N) 2,661 6.8 -13.6°
